Location: Kelling Heath
(52.9300°N, 1.1500°E)
Time: 19:24:07
(UTC+01:00)

Daily predictions for brighter satellites

Satellite Brightness Start Highest point End
(mag) Time Altitude Azimuth Time Altitude Azimuth Time Altitude Azimuth
MOS 1 4.4 21:06:28 10° SSE 21:12:09 89° E 21:17:52 10° NNW
Cosmos 724 4.4 21:08:12 10° NW 21:14:09 88° NE 21:20:10 10° SE
SPOT 1/Viking Rocket 3.6 21:10:02 10° SSE 21:15:15 84° ENE 21:20:32 10° NNW
Cosmos 1818 3.8 21:13:12 10° SSW 21:18:26 50° ESE 21:23:43 10° NE
Cosmos 2221 3.6 21:16:22 10° NNW 21:20:35 47° W 21:24:45 10° SSW
Cosmos 1151 Rocket 4.1 21:20:14 10° N 21:24:06 30° ENE 21:27:55 10° SE
Cosmos 2298 Rocket 4.2 21:18:55 10° NNW 21:24:16 82° WSW 21:29:35 10° SSE
GP-B 3.5 21:20:19 10° N 21:24:45 68° W 21:29:09 10° SSW
H-2A R/B 2.2 21:20:25 10° NNE 21:24:47 54° E 21:29:03 10° S
Cosmos 2227 Rocket 2.6 21:23:37 10° SW 21:29:16 71° NW 21:34:57 10° NNE
H-2A R/B 4.1 21:25:41 10° SSW 21:29:39 37° W 21:33:47 10° NNW
Helios 1A Rocket 4.1 21:26:43 10° ESE 21:30:15 29° ENE 21:33:48 10° N
CENTAUR R/B 4.2 21:26:58 10° W 21:33:15 41° NNW 21:40:44 10° NE
USA 245 3.0 21:31:10 10° SE 21:33:33 41° ENE 21:36:27 10° N
Cosmos 1943 3.3 21:29:05 10° NNW 21:34:43 69° NE 21:40:17 10° SE
Meteor 2-3 Rocket 3.8 21:32:39 10° SSW 21:38:17 86° WNW 21:44:02 10° NNE
Cosmos 1605 Rocket 4.2 21:33:44 10° NNW 21:40:00 74° W 21:46:08 10° S
ERS-1 Rocket 3.4 21:36:08 10° SE 21:40:56 47° ENE 21:45:45 10° N
Cosmos 1125 Rocket 4.1 21:40:23 10° NNW 21:45:35 56° WSW 21:50:43 10° S
Cosmos 1356 Rocket 4.3 21:42:58 10° SSE 21:46:42 32° E 21:50:30 10° NNE
MetOp-B 4.3 21:44:02 10° SSE 21:49:24 77° WSW 21:54:48 10° NNW
Cosmos 1184 Rocket 3.6 21:47:48 10° NNW 21:50:40 44° W 21:53:30 10° S
Cosmos 1459 Rocket 4.2 21:44:39 10° N 21:50:45 56° ENE 21:56:35 11° SSE
Cosmos 1727 Rocket 4.0 21:45:22 10° S 21:51:27 63° E 21:57:33 10° NNE
SL-16 R/B 3.7 21:47:15 10° NW 21:52:17 33° WSW 21:57:17 10° SSW
Cosmos 1812 3.5 21:49:06 10° NNW 21:52:48 49° W 21:56:29 10° S
Cosmos 2297 Rocket 3.8 21:47:56 10° WSW 21:53:13 39° NW 21:58:32 10° NNE
CARTOSAT-1 3.7 21:48:56 10° S 21:53:14 74° WSW 21:57:34 10° NNW
Cosmos 1340 2.9 21:50:47 10° NNW 21:54:31 70° W 21:58:13 10° S
Cosmos 921 Rocket 3.7 21:51:38 10° SSE 21:55:28 34° ESE 21:59:17 10° NE
Resurs 01 Rocket 2.9 21:52:17 10° SSW 21:56:27 38° W 22:00:37 10° NNW
SPOT 5 2.9 21:52:56 11° SSE 21:57:24 70° ENE 22:02:25 10° NNW
Cosmos 1076 Rocket 4.3 21:55:52 10° SSW 22:00:03 53° WNW 22:04:15 10° N
Meteor 1-27 Rocket 4.2 21:55:34 10° N 22:00:54 46° ENE 22:05:21 15° SE
Cosmos 2082 3.8 21:55:20 10° SSW 22:00:58 82° WNW 22:06:39 10° NNE
Cosmos 2208 Rocket 4.4 21:56:13 10° SW 22:01:29 69° WNW 22:06:42 10° NNE
USA 234 3.7 21:56:25 10° ENE 22:02:27 37° SE 22:08:28 10° SSW
Cosmos 2100 Rocket 4.0 21:56:13 10° N 22:02:29 72° ENE 22:08:15 12° SSE
SL-23 DEB 4.1 22:02:55 10° W 22:07:43 52° SSW 22:10:02 18° SE
CZ-2C R/B 4.4 22:05:37 10° NNE 22:09:43 34° E 22:12:45 16° SSE
Cosmos 2151 3.9 22:09:03 10° SSW 22:13:11 49° WNW 22:17:19 10° N
CZ-4C R/B 3.0 22:12:28 14° SSE 22:15:37 26° ESE 22:20:16 10° ENE
ARIANE 5 R/B 2.9 22:15:50 18° SE 22:18:49 52° ENE 22:23:04 10° N
Meteor 2-6 Rocket 4.5 22:15:48 10° NNW 22:21:15 65° W 22:26:31 10° S
Ariane Rocket 4.2 22:17:31 10° SSW 22:22:13 38° W 22:26:57 10° NNW
Cosmos 1400 Rocket 3.5 22:21:44 20° SSE 22:24:01 37° E 22:27:48 10° NNE
Cosmos 2263 Rocket 2.1 22:18:41 10° SSW 22:24:15 87° ESE 22:29:53 10° NNE
Timation 2 Rocket 4.2 22:17:42 10° SSW 22:24:24 88° ESE 22:31:21 10° NE
Cosmos 1603 4.0 22:20:04 10° NW 22:25:45 66° WSW 22:30:10 17° SSE
CZ-4B R/B 2.5 22:26:46 10° N 22:29:42 40° WNW 22:32:40 10° SW
Cosmos 1844 Rocket 3.6 22:29:01 19° SE 22:31:32 27° ESE 22:36:09 10° NE
Cosmos 1515 Rocket 4.0 22:29:50 10° N 22:34:04 48° ENE 22:36:27 23° SE
Cosmos 1862 3.9 22:30:13 10° SSW 22:34:10 57° WNW 22:38:11 10° N
Cosmos 773 Rocket 4.0 22:30:48 10° S 22:35:51 62° ESE 22:40:56 10° NNE
ASTEX 1 4.5 22:33:09 10° N 22:37:50 44° WNW 22:42:28 10° SSW
Cosmos 2227 4.2 22:33:28 10° SSW 22:39:12 75° ESE 22:44:59 10° NE
Cosmos 1408 Rocket 4.3 22:40:09 24° SE 22:42:01 35° E 22:46:04 10° NNE
IRAS Rocket 4.3 22:37:20 10° NNE 22:42:51 80° WNW 22:48:19 10° SSW
Terra 2.0 22:40:10 18° S 22:43:40 69° WSW 22:48:26 10° NNW
ATLAS 3B R/B 2.7 22:37:08 10° SW 22:43:52 89° SE 22:51:05 10° NE
Cosmos 1000 Rocket 4.5 22:38:02 10° S 22:44:13 88° WNW 22:50:31 10° N
ATLAS CENTAUR R/B 4.2 22:42:09 10° WNW 22:46:11 25° NNW 22:50:12 10° NE
SL-08 R/B 4.4 22:40:16 10° N 22:46:28 79° ENE 22:50:42 21° SSE
Cosmos 2061 Rocket 4.0 22:41:41 10° N 22:48:04 81° ENE 22:52:27 21° SSE
NOSS 8 (H) 4.3 22:45:26 10° SW 22:48:35 69° NW 22:51:28 10° NE
Spot 2 Rocket 4.3 22:45:49 13° S 22:50:08 47° W 22:55:04 10° NNW
Cosmos 2233 Rocket 4.1 22:44:54 10° N 22:51:09 64° ENE 22:55:09 23° SSE
Cosmos 1766 Rocket 3.5 22:50:28 17° SSW 22:53:48 86° W 22:58:14 10° N
ATLAS 5 CENTAUR R/B 2.4 22:48:47 10° NW 22:53:55 60° SW 22:57:39 24° SSE
BREEZE-M DEB (TANK) 2.6 22:53:05 10° WSW 22:55:17 42° SSE 22:59:33 10° E
Meteor 1-20 Rocket 4.4 22:53:21 23° SSE 22:56:39 54° E 23:02:08 10° NNE
H-2A R/B 4.5 22:56:52 10° N 23:00:25 24° WNW 23:03:54 10° WSW
Cosmos 1151 Rocket 4.3 22:57:45 10° NNW 23:01:41 35° W 23:05:00 13° SSW
Helios 1A Rocket 4.1 23:02:33 17° SSW 23:05:13 37° W 23:09:04 10° NNW
Cosmos 1441 Rocket 3.3 23:02:12 10° N 23:05:59 61° ENE 23:07:16 37° SE
Cosmos 44 4.1 23:09:49 10° NW 23:13:56 39° NE 23:16:55 17° E
Cosmos 1315 Rocket 3.5 23:13:48 33° ESE 23:14:32 36° E 23:18:11 10° NNE
NOSS 2-3 (D) 3.5 23:12:29 21° SSW 23:15:01 60° SE 23:19:41 10° NE
ADEOS Rocket 3.8 23:11:17 22° SE 23:16:11 54° ENE 23:22:53 10° N
Cosmos 1833 Rocket 3.7 23:12:10 10° NNW 23:17:28 39° NE 23:21:29 16° ESE
NOSS 2-3 (C) 3.4 23:15:27 18° SSW 23:18:24 67° SE 23:23:10 10° NE
Cosmos 2082 Rocket 4.1 23:15:17 10° NNW 23:19:49 24° NE 23:24:20 10° E
ERS-1 Rocket 4.4 23:16:02 13° SSW 23:19:55 31° W 23:24:21 10° NNW
Cosmos 2056 Rocket 4.4 23:16:18 10° NNW 23:21:15 40° NE 23:24:11 21° ESE
Cosmos 389 Rocket 4.1 23:23:46 20° E 23:23:46 20° E 23:26:03 10° NE
Cosmos 1844 3.9 23:22:09 27° S 23:25:09 54° ESE 23:30:45 10° NE
CENTAUR R/B 4.2 23:18:52 10° NW 23:25:44 41° NNE 23:33:43 10° E
Cosmos 1500 Rocket 3.6 23:26:02 38° SSE 23:27:31 60° E 23:31:52 10° NNE
NOSS 3-1 (C) 3.2 23:23:24 15° SSW 23:27:44 64° SE 23:34:02 10° NE
Cosmos 1346 Rocket 3.3 23:25:08 10° NNW 23:29:02 52° W 23:30:33 32° SSW
Cosmos 1602 3.9 23:29:03 32° SSW 23:30:43 71° WNW 23:34:38 10° N
OPS 8737 4.5 23:28:59 10° NW 23:31:48 56° NE 23:32:21 47° E
Okean 1 3.4 23:32:51 10° NNW 23:36:50 68° W 23:38:03 41° SSW
USA 229 DEB 4.1 23:35:41 30° SSE 23:37:47 38° ESE 23:43:57 10° NE
USA 229 4.1 23:35:51 30° SSE 23:37:54 38° ESE 23:44:03 10° NE
Cosmos 2278 Rocket 4.0 23:39:42 14° ESE 23:40:22 14° E 23:43:18 10° ENE
Cosmos 2098 Rocket 4.5 23:38:30 30° SE 23:41:04 46° E 23:47:33 10° NNE
Spot 4 3.9 23:41:37 37° SSE 23:43:32 77° ENE 23:48:26 10° NNW
Cosmos 1666 2.5 23:43:57 53° S 23:44:45 89° ESE 23:48:30 10° NNE
USA 234 3.2 23:39:23 10° ENE 23:45:59 86° SSE 23:52:36 10° WSW
ALOS 2 2.9 23:48:31 38° SE 23:49:56 57° ENE 23:54:15 10° N
USA 308 4.1 23:56:32 26° E 23:56:32 26° E 23:58:41 10° ENE
ARIANE 5 R/B 4.5 23:53:22 15° SW 23:55:35 22° W 23:58:59 10° NW
